TimeCDT,TemperatureF,Dew PointF,Humidity,Sea Level PressureIn,VisibilityMPH,Wind Direction,Wind SpeedMPH,Gust SpeedMPH,PrecipitationIn,Events,Conditions,WindDirDegrees,DateUTC
12:56 AM,71.1,64.9,81,29.78,10.0,Calm,Calm,-,N/A,,Clear,0,2013-06-30 05:56:00
1:56 AM,69.1,64.9,87,29.78,10.0,Calm,Calm,-,N/A,,Clear,0,2013-06-30 06:56:00
2:56 AM,66.9,64.0,90,29.77,10.0,Calm,Calm,-,N/A,,Clear,0,2013-06-30 07:56:00
3:56 AM,68.0,62.1,81,29.76,10.0,Calm,Calm,-,N/A,,Clear,0,2013-06-30 08:56:00
4:56 AM,66.0,61.0,84,29.77,10.0,Calm,Calm,-,N/A,,Clear,0,2013-06-30 09:56:00
5:56 AM,64.0,61.0,90,29.78,10.0,Calm,Calm,-,N/A,,Clear,0,2013-06-30 10:56:00
6:56 AM,66.0,62.1,87,29.78,10.0,Calm,Calm,-,N/A,,Clear,0,2013-06-30 11:56:00
7:56 AM,75.9,61.0,60,29.79,10.0,Calm,Calm,-,N/A,,Clear,0,2013-06-30 12:56:00
8:56 AM,81.0,61.0,50,29.81,10.0,NNW,3.5,-,N/A,,Clear,340,2013-06-30 13:56:00
9:56 AM,82.9,60.1,46,29.81,10.0,Variable,3.5,-,N/A,,Clear,0,2013-06-30 14:56:00
10:56 AM,88.0,60.1,39,29.81,10.0,Variable,5.8,-,N/A,,Clear,0,2013-06-30 15:56:00
11:56 AM,90.0,57.0,33,29.81,10.0,North,8.1,-,N/A,,Clear,360,2013-06-30 16:56:00
12:56 PM,90.0,55.0,30,29.81,10.0,North,6.9,17.3,N/A,,Clear,360,2013-06-30 17:56:00
1:56 PM,91.0,57.0,32,29.79,10.0,North,11.5,17.3,N/A,,Clear,360,2013-06-30 18:56:00
2:56 PM,91.0,57.9,33,29.79,10.0,North,6.9,-,N/A,,Scattered Clouds,360,2013-06-30 19:56:00
3:56 PM,89.1,55.0,31,29.79,10.0,Variable,4.6,-,N/A,,Scattered Clouds,0,2013-06-30 20:56:00
4:56 PM,91.0,53.1,27,29.78,10.0,Variable,4.6,-,N/A,,Clear,0,2013-06-30 21:56:00
5:56 PM,88.0,55.9,34,29.78,10.0,North,6.9,-,N/A,,Clear,360,2013-06-30 22:56:00
6:56 PM,86.0,55.0,35,29.78,10.0,North,5.8,-,N/A,,Partly Cloudy,350,2013-06-30 23:56:00
7:56 PM,82.9,55.9,39,29.80,10.0,North,3.5,-,N/A,,Clear,360,2013-07-01 00:56:00
8:56 PM,77.0,59.0,54,29.81,10.0,North,3.5,-,N/A,,Clear,360,2013-07-01 01:56:00
9:56 PM,75.0,61.0,62,29.83,10.0,Calm,Calm,-,N/A,,Clear,0,2013-07-01 02:56:00
10:56 PM,73.0,61.0,66,29.84,10.0,North,3.5,-,N/A,,Clear,360,2013-07-01 03:56:00
11:56 PM,69.1,62.1,78,29.85,10.0,Calm,Calm,-,N/A,,Clear,0,2013-07-01 04:56:00